ECHOSTAR 10

Last updated on Sun Jun 21 2026 00:03:03 GMT+0000 (Coordinated Universal Time)

1 28935U 06003A 26171.36017014 -.00000060 00000+0 00000+0 0 9990 2 28935 0.0164 1.1897 0001430 77.7268 209.1028 1.00270944 74494
UTC large
Height (km)
Speed (km/s)
/
Latitude / Longitude
Inclination (degrees)
Orbital Period (minutes)
Azimuth
Elevation
Range (km)
Doppler Factor

Next 0 passes for location: London (51.5072 / 0.1276)

No passes found over London.
ECHOSTAR 10